Stündliche Wetter Holoborod'ka

Heute, 21 Juni, Montag

Zeit Temperatur Niederschläge Wind Luftdruck Luftfeuchtigkeit
00:00 +19°C° 0.1 mm 4 m/S 752 mmHg 87%
01:00 +19°C° 0.1 mm 4 m/S 752 mmHg 89%
02:00 +19°C° 0 mm 4 m/S 751 mmHg 89%
03:00 +19°C° 0.1 mm 4 m/S 751 mmHg 89%
04:00 +19°C° 0.1 mm 4 m/S 751 mmHg 90%
05:00 +19°C° 0.1 mm 4 m/S 751 mmHg 90%
06:00 +21°C° 0 mm 4 m/S 751 mmHg 85%
07:00 +22°C° 0 mm 4 m/S 751 mmHg 80%
08:00 +25°C° 0 mm 4 m/S 751 mmHg 75%
09:00 +26°C° 0 mm 4 m/S 751 mmHg 72%
10:00 +27°C° 0 mm 5 m/S 751 mmHg 68%
11:00 +28°C° 0 mm 6 m/S 751 mmHg 64%
12:00 +29°C° 0 mm 6 m/S 751 mmHg 64%
13:00 +29°C° 0 mm 6 m/S 751 mmHg 63%
14:00 +29°C° 0 mm 5 m/S 751 mmHg 62%
15:00 +29°C° 0 mm 5 m/S 751 mmHg 65%
16:00 +29°C° 0 mm 5 m/S 751 mmHg 68%
17:00 +29°C° 0 mm 4 m/S 751 mmHg 70%
18:00 +27°C° 0 mm 4 m/S 751 mmHg 75%
19:00 +26°C° 0 mm 4 m/S 751 mmHg 79%
20:00 +24°C° 0 mm 3 m/S 751 mmHg 84%
21:00 +24°C° 0 mm 3 m/S 751 mmHg 85%
22:00 +22°C° 0 mm 3 m/S 752 mmHg 86%
23:00 +21°C° 0 mm 3 m/S 752 mmHg 87%

Morgen, 22 Juni, Dienstag

Zeit Temperatur Niederschläge Wind Luftdruck Luftfeuchtigkeit
00:00 +21°C° 0 mm 3 m/S 752 mmHg 86%
01:00 +20°C° 0 mm 3 m/S 751 mmHg 85%
02:00 +19°C° 0 mm 3 m/S 751 mmHg 84%
03:00 +19°C° 0 mm 3 m/S 751 mmHg 84%
04:00 +19°C° 0 mm 3 m/S 752 mmHg 83%
05:00 +19°C° 0 mm 3 m/S 752 mmHg 83%
06:00 +21°C° 0 mm 4 m/S 752 mmHg 77%
07:00 +22°C° 0 mm 4 m/S 752 mmHg 72%
08:00 +25°C° 0 mm 4 m/S 752 mmHg 67%
09:00 +26°C° 0 mm 5 m/S 752 mmHg 63%
10:00 +28°C° 0 mm 5 m/S 752 mmHg 59%
11:00 +29°C° 0 mm 6 m/S 752 mmHg 55%
12:00 +29°C° 0 mm 6 m/S 752 mmHg 56%
13:00 +30°C° 0 mm 5 m/S 752 mmHg 56%
14:00 +30°C° 0 mm 5 m/S 752 mmHg 57%
15:00 +30°C° 0 mm 5 m/S 752 mmHg 60%
16:00 +29°C° 0 mm 5 m/S 752 mmHg 63%
17:00 +28°C° 0 mm 4 m/S 752 mmHg 65%
18:00 +27°C° 0 mm 4 m/S 752 mmHg 71%
19:00 +25°C° 0 mm 3 m/S 752 mmHg 76%
20:00 +24°C° 0 mm 3 m/S 753 mmHg 82%
21:00 +22°C° 0 mm 3 m/S 752 mmHg 83%
22:00 +22°C° 0 mm 3 m/S 752 mmHg 84%
23:00 +21°C° 0 mm 3 m/S 752 mmHg 85%

übermorgen, 23 Juni, Mittwoch

Zeit Temperatur Niederschläge Wind Luftdruck Luftfeuchtigkeit
00:00 +21°C° 0 mm 3 m/S 752 mmHg 86%
01:00 +21°C° 0 mm 3 m/S 752 mmHg 87%
02:00 +20°C° 0 mm 3 m/S 752 mmHg 88%
03:00 +21°C° 0 mm 3 m/S 752 mmHg 89%
04:00 +21°C° 0 mm 3 m/S 752 mmHg 89%
05:00 +21°C° 0 mm 3 m/S 752 mmHg 89%
06:00 +23°C° 0 mm 4 m/S 753 mmHg 83%
07:00 +25°C° 0 mm 4 m/S 753 mmHg 77%
08:00 +27°C° 0 mm 4 m/S 753 mmHg 72%
09:00 +28°C° 0 mm 4 m/S 753 mmHg 68%
10:00 +29°C° 0 mm 4 m/S 753 mmHg 64%
11:00 +30°C° 0 mm 4 m/S 753 mmHg 60%
12:00 +30°C° 0 mm 4 m/S 753 mmHg 61%
13:00 +32°C° 0 mm 4 m/S 753 mmHg 62%
14:00 +32°C° 0 mm 4 m/S 753 mmHg 62%
15:00 +30°C° 0 mm 3 m/S 753 mmHg 67%
16:00 +30°C° 0 mm 3 m/S 753 mmHg 71%
17:00 +29°C° 0 mm 3 m/S 753 mmHg 76%
18:00 +28°C° 0 mm 3 m/S 753 mmHg 78%
19:00 +27°C° 0 mm 3 m/S 753 mmHg 80%
20:00 +26°C° 0 mm 3 m/S 753 mmHg 82%
21:00 +25°C° 0 mm 3 m/S 753 mmHg 81%
22:00 +24°C° 0 mm 3 m/S 753 mmHg 81%
23:00 +22°C° 0 mm 3 m/S 753 mmHg 81%

24 Juni, Donnerstag

Zeit Temperatur Niederschläge Wind Luftdruck Luftfeuchtigkeit
00:00 +22°C° 0 mm 3 m/S 753 mmHg 80%
01:00 +22°C° 0 mm 3 m/S 753 mmHg 78%
02:00 +21°C° 0 mm 3 m/S 754 mmHg 76%
03:00 +21°C° 0 mm 3 m/S 754 mmHg 77%
04:00 +21°C° 0 mm 3 m/S 753 mmHg 77%
05:00 +21°C° 0 mm 3 m/S 753 mmHg 78%
06:00 +24°C° 0 mm 3 m/S 753 mmHg 75%
07:00 +26°C° 0 mm 4 m/S 753 mmHg 73%
08:00 +27°C° 0 mm 4 m/S 753 mmHg 71%
09:00 +28°C° 0 mm 4 m/S 753 mmHg 67%
10:00 +30°C° 0 mm 4 m/S 753 mmHg 63%
11:00 +32°C° 0 mm 5 m/S 753 mmHg 59%
12:00 +32°C° 0 mm 5 m/S 753 mmHg 56%
13:00 +33°C° 0 mm 4 m/S 753 mmHg 54%
14:00 +33°C° 0 mm 4 m/S 753 mmHg 51%
15:00 +33°C° 0 mm 4 m/S 753 mmHg 55%
16:00 +32°C° 0 mm 4 m/S 753 mmHg 59%
17:00 +32°C° 0 mm 4 m/S 753 mmHg 63%
18:00 +29°C° 0 mm 3 m/S 753 mmHg 68%
19:00 +27°C° 0 mm 3 m/S 753 mmHg 73%
20:00 +25°C° 0 mm 3 m/S 753 mmHg 79%
21:00 +24°C° 0 mm 3 m/S 753 mmHg 80%
22:00 +23°C° 0 mm 2 m/S 753 mmHg 81%
23:00 +23°C° 0 mm 2 m/S 753 mmHg 82%

25 Juni, Freitag

Zeit Temperatur Niederschläge Wind Luftdruck Luftfeuchtigkeit
00:00 +21°C° 0 mm 2 m/S 753 mmHg 83%
01:00 +21°C° 0 mm 2 m/S 753 mmHg 83%
02:00 +21°C° 0 mm 2 m/S 753 mmHg 83%
03:00 +23°C° 0 mm 2 m/S 753 mmHg 85%
04:00 +23°C° 0 mm 2 m/S 753 mmHg 87%
05:00 +23°C° 0 mm 2 m/S 753 mmHg 89%
06:00 +25°C° 0 mm 2 m/S 753 mmHg 84%
07:00 +26°C° 0 mm 2 m/S 753 mmHg 79%
08:00 +28°C° 0 mm 3 m/S 753 mmHg 74%
09:00 +29°C° 0 mm 3 m/S 753 mmHg 70%
10:00 +30°C° 0 mm 2 m/S 753 mmHg 65%
11:00 +31°C° 0 mm 2 m/S 753 mmHg 60%
12:00 +32°C° 0 mm 2 m/S 753 mmHg 59%
13:00 +33°C° 0 mm 3 m/S 752 mmHg 58%
14:00 +33°C° 0 mm 3 m/S 752 mmHg 57%
15:00 +33°C° 0 mm 3 m/S 752 mmHg 61%
16:00 +33°C° 0 mm 3 m/S 752 mmHg 65%
17:00 +31°C° 0 mm 2 m/S 752 mmHg 69%
18:00 +30°C° 0 mm 2 m/S 751 mmHg 72%
19:00 +28°C° 0 mm 3 m/S 751 mmHg 76%
20:00 +27°C° 0 mm 3 m/S 750 mmHg 80%
21:00 +26°C° 0.1 mm 2 m/S 751 mmHg 81%
22:00 +26°C° 0.1 mm 2 m/S 751 mmHg 82%
23:00 +25°C° 0.1 mm 1 m/S 751 mmHg 83%

26 Juni, Samstag

Zeit Temperatur Niederschläge Wind Luftdruck Luftfeuchtigkeit
00:00 +25°C° 0.1 mm 2 m/S 751 mmHg 85%
01:00 +24°C° 0.1 mm 2 m/S 751 mmHg 86%
02:00 +24°C° 0.1 mm 2 m/S 751 mmHg 88%
03:00 +24°C° 0 mm 2 m/S 751 mmHg 88%
04:00 +24°C° 0 mm 2 m/S 751 mmHg 88%
05:00 +24°C° 0 mm 2 m/S 750 mmHg 88%
06:00 +25°C° 0 mm 2 m/S 750 mmHg 82%
07:00 +27°C° 0 mm 3 m/S 750 mmHg 76%
08:00 +28°C° 0 mm 3 m/S 751 mmHg 70%
09:00 +30°C° 0 mm 2 m/S 751 mmHg 65%
10:00 +31°C° 0 mm 2 m/S 750 mmHg 60%
11:00 +32°C° 0 mm 2 m/S 750 mmHg 55%
12:00 +32°C° 0 mm 2 m/S 750 mmHg 52%
13:00 +34°C° 0 mm 2 m/S 750 mmHg 50%
14:00 +34°C° 0 mm 1 m/S 750 mmHg 47%
15:00 +34°C° 0 mm 1 m/S 749 mmHg 49%
16:00 +33°C° 0 mm 1 m/S 749 mmHg 50%
17:00 +33°C° 0 mm 1 m/S 749 mmHg 52%
18:00 +32°C° 0 mm 1 m/S 749 mmHg 57%
19:00 +30°C° 0 mm 2 m/S 748 mmHg 62%
20:00 +28°C° 0 mm 2 m/S 748 mmHg 68%
21:00 +26°C° 0.9 mm 3 m/S 749 mmHg 76%
22:00 +23°C° 0.9 mm 4 m/S 749 mmHg 85%
23:00 +21°C° 0.9 mm 5 m/S 749 mmHg 94%
Mehr zeigen

Wir brauchen deine Erlaubnis

Meteoprog und unser Service Anbieter werden persönliche Daten aufbewahren, so wie Cookies, Geräte Bezeichnung oder ähnliche Technologien von deinem Gerät und Prozess, so wie Persönliche Daten Inhalte und Werbungen, genauso wie social Media und den Verkehr zu analysieren.

  • Aufbewahrung und/oder Zugang zu deiner Geräte Informationen.

    Cookies, Geräte Bezeichnung oder andere Informationen, können aufbewahrt oder Zugang zu deinem Gerät erhalten, für den Grund, der oben angegeben wird.

  • Personalisierte Werbung und Inhalte, Messungen, Einblick in das Publikum und Produkt Entwicklung.

    Werbungen und Inhalte können personalisiert werden, basierend auf ein Profil. Mehr Daten können besser personalisierte Werbungen und Inhalte hinzufügen. Werbung und Inhalte können gezeigt und gemessen werden. Einblicke über das Publikum, welche die Werbung gesehen haben und den Inhalt, können abgeleitet werden. So wie Daten können genutzt werden, um es zu verbessern oder die Benutzer Erfahrung zu verbessern das System und die Software.

Wenn du “Ich stimme zu” klickst, erlaubst du uns, die Cookies zu benutzen die Geräte Bezeichnung, den Web oder ähnliche Technologien zu benutzen. Deine Settings, können in deinem Gerät bei deinem Browser geändert werden.

Für den bestimmten Zweck, berechtigten Interessen beruhen darauf, mehr als auf den Inhalt. Du kannst mehr darüber in unseren Privaten und Cookie Politik lesen.